星链-35833(STARLINK-35833)

导读 | 豆包AI

STARLINK-35833是美国SpaceX星链互联网卫星星座的一员,于2025年11月19日发射入轨,归属于美国太空探索技术公司。该卫星属于星链低轨卫星组网的补充发射卫星,延续星链星座设计,运行在近地轨道,承担全球互联网覆盖服务任务,为全球偏远地区、海上与航空用户提供低延迟宽带通信服务,推进星链星座全球组网进程。

基本信息
目录编号:
66542
目录名称:
STARLINK-35833
国际标识:
2025-265AC
轨道中心:
EARTH
卫星名称:
星链-35833
卫星全名:
星链-35833(STARLINK-35833)
卫星状态:
在轨 (已飞行115 天)
发射日期:
2025-11-19 UTC
国别 :
美国 (US)
星等 :
--
轨道信息
数据来源 国际轨道数据 AOE轨道数据
星历时间 2026-03-13T22:01:06+0800
13小时前
查看轨道信息
2026-03-11T10:00:00+0800
3天前
查看轨道信息
半长轴 6861.06km 6861.191km
偏心率 0.0002068 0.0001309
轨道倾角 42.999° 43.000°
近地点辐角 271.642° 266.315°
升交点赤经 256.407° 270.533°
平近点角 88.419° 5.243°
近地点 481.504km 482.155km
远地点 484.342km 483.953km
周期 94.264分钟 94.267分钟
每日圈数 15.276223 15.275785
详细信息
固有亮度:
5
最大亮度:
2.5
卫星平台:
Starlink V1.0
覆盖范围:
全球
运营商:
太空探索技术公司
运营商所在国:
美国
制造商(研发单位):
太空探索技术公司
制造商所在国:
美国
使用方式:
暂无
卫星简介
Starlink 计划是 SpaceX 推出的全球卫星互联网项目,通过发射低轨道卫星,为全球尤其是偏远地区提供高速、低延迟的互联网服务。自 2019 年起,Starlink 已部署数千颗卫星,旨在缩小全球数字鸿沟,推动互联网普及。该项目还为军事、航空等行业提供通信支持,带来广泛经济效益。
2D轨道图
3D轨道图
轨道高度分析图
轨道倾角分析图
轨道综合分析图
查看轨道综合分析图